Regional Weather Roundup
Issued by NWS Binghamton, NY

Current Version | Previous Version | Text Only | Print | Product List | Glossary On
Versions: 1 2 3 4 5 6 7 8 9 10 11 12 13 14 15 16 17 18 19 20 21 22 23 24 25 26 27 28 29 30 31 32 33 34 35 36 37 38 39 40 41 42 43 44 45 46 47 48 49
000
ASUS41 KBGM 120410
RWRBGM

REGIONAL WEATHER ROUNDUP
NATIONAL WEATHER SERVICE BINGHAMTON NY
1200 AM EDT WED AUG 12 2020

Note: "fair" indicates few or no clouds below 12,000 feet with no
significant weather and/or obstructions to visibility.

* = Station(s) that does not report precipitation, such as rain,
snow, etc, also no thunder or fog.

NYZ009-015>018-022>025-036-037-044>046-055>057-062-120500
...Central New York...

CITY           SKY/WX    TMP DP  RH WIND       PRES   REMARKS
Binghamton     MOCLDY    69  68  96 S3        30.02R
Cortland       CLOUDY    68  68 100 CALM      30.01S
Dansville      CLOUDY    73  66  78 CALM      30.00R
Elmira         PTCLDY    72  66  81 W5        29.99R
Endicott       CLOUDY    70  70 100 CALM      29.99R
Ithaca         MOCLDY    70  68  93 CALM      30.01R
Hamilton       CLOUDY    70  70 100 CALM      30.00S
Monticello     CLOUDY    73  67  81 N6        30.02R
Norwich        FOG       66  66 100 CALM      30.00S VSB 3/4
Oneonta        PTCLDY    66  66 100 CALM      30.03R FOG
Penn Yan       CLEAR     71  65  81 SW3       30.00R
Rome           PTCLDY    71  68  90 CALM      29.96R
Sidney         CLOUDY    70  70 100 CALM      30.00F FOG
Skaneateles    CLOUDY    70  68  94 CALM      29.99R
Syracuse       MOCLDY    75  70  84 CALM      29.96R
$$

PAZ038>040-043-044-047-048-072-120500
...Northeast Pennsylvania...

CITY           SKY/WX    TMP DP  RH WIND       PRES   REMARKS
Hazleton       PTCLDY    75  68  78 CALM      30.04S
Scranton       PTCLDY    79  69  71 N7        29.98R
Towanda        PTCLDY    73  73 100 CALM      30.01R
$$
&&
KEY
WCI = Wind Chill Index
VSB = Visibility
HX  = Heat Index
$$




USA.gov is the U.S. government's official web portal to all federal, state and local government web resources and services.